Showing default

HULIANWANG DIGUI-05, 62327

Orbit data source: Space-Track

HULIANWANG DIGUI-05, 62327 is a payload satellite owned by Zhongguo Xingwang (CN) in LEO that was launched on Mon, 16 Dec 2024 UTC via a CHANG ZHENG 5B/YZ-2 launch vehicle from the Wenchang Satellite Launch Center (WSC). Payload-class satellites include a variety of spacecraft equipped with specific instruments for various scientific and technological missions. These include communications satellites like Starlink; space stations such as the ISS; scientific satellites like the Hubble; Earth observation satellites from companies like Planet Labs, Umbra, and HawkEye 360; GPS; miniature CubeSats for education and research; and military/defense satellites.

Loading next visibility...
Identifier
62327, 2024-240E
Orbit
LEO
Country
Flag of CNCN / PRC
Related business
Manufacturer
CAST?
Mission
Operational Civil Communications
Bus & Motor
XINGWANG CL, Unknown motor
Mass
~800 kg wet, ~800 kg dry
Launch date (UTC)
2024-12-16 (2 years ago)
Launch vehicle
CHANG ZHENG 5B/YZ-2
Launch site
Wenchang Satellite Launch Center (WSC)
Object type
Payload
Rocket body
Debris
Shape & HBR
Box + 2 Pan, 5.0 m
Radar Cross Section
5.935 m², Large (>1 m²)

Expand to show TLE details & history
Last TLE update: 10 hours ago

TLE from 10 hours ago
0 HULIANWANG DIGUI-05
1 62327U 24240E   26171.45086078  .00000013  00000-0 -49667-5 0  9999
2 62327  86.5040 342.3527 0001827 106.3658 253.7677 13.24410053 73075
Epoch: 2026-06-20T10:49Z
TLE epoch observation values (Epoch: 2026-06-20T10:49:14.371Z)
Latitude
-0.00002°
Longitude
-88.62248°
Altitude
1,171.202 km
Speed
7.268 km/s
True Right ascension
22h 49m 24s
True Declination
0° 00' 00"
Sunlit
Object was in daylight at epoch
Visualization orbit readout
Latitude
Unknown
Longitude
Unknown
Altitude
Unknown
Speed
Unknown
Apparent Right ascension
Unknown
Apparent Declination
Unknown
Sunlit
N/A
Visualization observer readout
Local Sidereal Time
07:18:31
Azimuth
Unknown
Elevation
Unknown
Doppler factor
Unknown
Orbital elements
Apogee altitude
1,166.42 km
Perigee altitude
1,163.664 km
Semi-major axis
7,543.179 km
Eccentricity
0.00018
Inclination
86.504°
RAAN
342.3527°
Arg. of periapsis
106.3658°
True anomaly
253.7476°
Mean anomaly
253.7677°
Eccentric anomaly
253.75765°
Mean motion
3.31292 °/min
Orbital period
108.67 mins
BSTAR
-0.0000049667
Loading maneuver chart data...
Computing Atmospheric mass density...
Loading historical data...
Loading historical data...
Loading historical data...
Loading historical data...
Loading historical data...
Loading historical data...
Loading historical data...

Documentation

Showing up to 5 results
|